FENGYUN 1C DEB, 31913

Orbit data source: Space-Track

FENGYUN 1C DEB, 31913 is space debris in SSO originally from a launch on Mon, 10 May 1999 UTC launched from the Taiyaun Space Center, China (TSC). Fengyun 1C debris stems from the Chinese weather satellite Fengyun-1C, which was intentionally destroyed by a Chinese anti-satellite missile in 2007. This event dramatically increased the amount of space debris, with thousands of trackable fragments posing hazards to satellites and human spaceflight. The Fengyun 1C debris cloud has become a focal point in discussions about space sustainability and the need for international regulations to prevent the creation of new debris.

Loading next visibility...
Identifier
31913, 1999-025CLQ
Orbit
SSO
Country
Flag of CNCN / PRC
Related business
Manufacturer
Unknown
Mission
Spacecraft
Bus & Motor
Unknown
Mass
Unknown
Launch date (UTC)
1999-05-10 (27 years ago)
Launch vehicle
Unknown
Launch site
Taiyaun Space Center, China (TSC)
Object type
Payload
Rocket body
Debris
Shape & HBR
Unknown shape, 0.1 m
Radar Cross Section
Medium (>0.1 m² and <1 m²)

Expand to show TLE details & history
Last TLE update: 1 day ago

TLE from 1 day ago
0 FENGYUN 1C DEB
1 31913U 99025CLQ 26237.06118125  .00002045  00000-0  13657-2 0  9991
2 31913  99.2850 163.9580 0193556 339.8400  19.5190 13.93534512594403
Epoch: 2026-08-25T01:28Z
TLE epoch observation values (Epoch: 2026-08-25T01:28:06.059Z)
Latitude
0.00003°
Longitude
168.5988°
Altitude
786.346 km
Speed
7.528 km/s
True Right ascension
10h 55m 49s
True Declination
0° 00' 00"
Sunlit
Object was in daylight at epoch
Visualization orbit readout
Latitude
Unknown
Longitude
Unknown
Altitude
Unknown
Speed
Unknown
Apparent Right ascension
Unknown
Apparent Declination
Unknown
Sunlit
N/A
Visualization observer readout
Local Sidereal Time
22:15:39
Azimuth
Unknown
Elevation
Unknown
Doppler factor
Unknown
Orbital elements
Apogee altitude
1,054.625 km
Perigee altitude
772.357 km
Semi-major axis
7,291.628 km
Eccentricity
0.01936
Inclination
99.285°
RAAN
163.958°
Arg. of periapsis
339.84°
True anomaly
20.27733°
Mean anomaly
19.519°
Eccentric anomaly
19.89641°
Mean motion
3.48583 °/min
Orbital period
103.28 mins
BSTAR
0.0013657
Loading maneuver chart data...
Computing Atmospheric mass density...
Loading historical data...
Loading historical data...
Loading historical data...
Loading historical data...
Loading historical data...
Loading historical data...
Loading historical data...

Documentation

Showing up to 5 results
|